Regional Weather Roundup
Issued by NWS

Home | Current Version | Previous Version | Text Only | Print | Product List | Glossary On
Versions: 1 2 3 4 5 6 7 8 9 10 11 12 13 14 15 16 17 18 19 20 21 22 23 24 25 26 27 28 29 30 31 32 33 34 35 36 37 38 39 40 41 42 43 44 45 46 47 48 49 50
000
ASCA42 TJSJ 232211
RWRPR
PUERTO RICO/U.S. VIRGIN ISLANDS HOURLY WEATHER ROUNDUP
NATIONAL WEATHER SERVICE SAN JUAN PR
600 PM AST WED JUL 23 2014

PRZ001-004-232300-
PUERTO RICO

CITY           SKY/WX    TMP DP  RH WIND       PRES   REMARKS
SAN JUAN LMM   MOSUNNY   86  75  70 NE17      30.02S HX  95
MAYAGUEZ       PTSUNNY   86  72  62 E5        30.01S HX  92
AGUADILLA      SUNNY     82  73  74 E22G29    30.03F
CEIBA          CLOUDY    82  75  78 E12G18    30.04F
$$

PRZ006-007-232300-
U.S. VIRGIN ISLANDS

CITY           SKY/WX    TMP DP  RH WIND       PRES   REMARKS
CHARLOTTE AMA  SUNNY     86  73  66 E18G24    30.02R HX  93
CHRISTIANSTED  MOSUNNY   86  72  62 E18G25    30.01S HX  92
$$

HOURLY WEATHER ROUNDUP FOR THE NEWS MEDIA

CITY           SKY/WX    TMP DP  RH WIND       PRES   REMARKS
MIAMI          MOSUNNY   87  70  56 N3        30.04F HX  92
ORLANDO        PTSUNNY   89  74  60 E9        30.01F HX  98
NEW YORK       PTSUNNY   80  70  71 S25G33    29.80F
NEWARK         PTSUNNY   92  70  48 SW17      29.77F HX  97
CHICAGO        MOSUNNY   69  50  50 NE18G25   30.14S
HARTFORD       SUNNY     78  66  66 SW15G24   29.80F
DALLAS         PTSUNNY   94  68  42 MISG      30.01F HX  98
PHILADELPHIA   MOSUNNY   91  69  48 S15G28    29.80F HX  96


USA.gov is the U.S. government's official web portal to all federal, state and local government web resources and services.